FW3806 Weather Reports


Display with metric or nautical units.
time (UTC)temp
F
wind
direction
speed
MPH
gust
MPH
rain 1hr
in
rain 24hr
in
rain mn
in
humidity
%
barometer
mb
20260902023106 88 233 3.0 17.0 0.00 0.00 0.00 12 1005.9
20260902023002 88 213 3.0 17.0 0.00 0.00 0.00 12 1005.9
20260902021600 88 259 0.0 14.0 0.00 0.00 0.00 12 1005.8
20260902020107 89 206 4.0 10.0 0.00 0.00 0.00 11 1005.9
20260902014557 91 204 6.0 14.0 0.00 0.00 0.00 10 1006.1
20260902013057 91 158 7.0 14.0 0.00 0.00 0.00 10 1006.2
20260902011555 91 143 6.0 15.0 0.00 0.00 0.00 10 1006.3
20260902010054 92 218 6.0 15.0 0.00 0.00 0.00 10 1006.4
20260902004553 92 201 6.0 20.0 0.00 0.00 0.00 9 1006.5
20260902003052 92 261 6.0 19.0 0.00 0.00 0.00 9 1006.5
20260902001552 92 240 7.0 16.0 0.00 0.00 0.00 9 1006.5
20260902000056 93 193 7.0 17.0 0.00 0.00 0.00 8 1006.5
20260901234549 93 254 5.0 20.0 0.00 0.00 0.00 8 1006.5
20260901233049 93 153 7.0 18.0 0.00 0.00 0.00 8 1006.7
20260901231549 93 203 11.0 23.0 0.00 0.00 0.00 7 1006.7
20260901230050 93 198 11.0 22.0 0.00 0.00 0.00 7 1006.8
20260901224547 93 228 9.0 21.0 0.00 0.00 0.00 7 1007.0
20260901223048 93 218 9.0 20.0 0.00 0.00 0.00 8 1006.9
20260901221544 93 212 8.0 17.0 0.00 0.00 0.00 8 1007.0
20260901220046 93 233 9.0 17.0 0.00 0.00 0.00 8 1007.1
20260901214543 94 231 9.0 15.0 0.00 0.00 0.00 8 1007.3
20260901213102 94 240 9.0 20.0 0.00 0.00 0.00 7 1007.4
20260901211540 93 159 9.0 21.0 0.00 0.00 0.00 8 1007.6
20260901210038 93 123 7.0 12.0 0.00 0.00 0.00 10 1007.9
20260901204544 92 181 5.0 14.0 0.00 0.00 0.00 10 1008.2
20260901203036 92 183 10.0 17.0 0.00 0.00 0.00 10 1008.4
20260901201534 92 224 5.0 13.0 0.00 0.00 0.00 11 1008.7
20260901200036 92 165 5.0 17.0 0.00 0.00 0.00 11 1008.7
20260901194531 92 241 6.0 17.0 0.00 0.00 0.00 12 1008.8
20260901193029 91 116 10.0 17.0 0.00 0.00 0.00 13 1009.0
20260901191526 90 158 8.0 16.0 0.00 0.00 0.00 13 1009.1
20260901190026 90 143 8.0 14.0 0.00 0.00 0.00 14 1009.2
20260901184533 90 154 9.0 15.0 0.00 0.00 0.00 17 1009.3
20260901183022 89 158 13.0 22.0 0.00 0.00 0.00 17 1009.3
20260901181520 88 127 8.0 20.0 0.00 0.00 0.00 18 1009.5
20260901180018 88 142 9.0 16.0 0.00 0.00 0.00 21 1009.4
20260901174517 87 75 8.0 14.0 0.00 0.00 0.00 20 1009.7
20260901173013 86 105 8.0 17.0 0.00 0.00 0.00 19 1009.8
20260901171512 85 103 7.0 15.0 0.00 0.00 0.00 16 1009.8
20260901170009 85 118 7.0 15.0 0.00 0.00 0.00 16 1009.8
20260901164507 84 81 8.0 13.0 0.00 0.00 0.00 18 1009.8
20260901163007 83 102 7.0 16.0 0.00 0.00 0.00 20 1009.7
20260901161505 83 87 7.0 13.0 0.00 0.00 0.00 19 1009.8
20260901160003 83 89 4.0 12.0 0.00 0.00 0.00 18 1009.7
20260901154502 82 151 5.0 9.0 0.00 0.00 0.00 19 1009.8
20260901153102 81 93 3.0 9.0 0.00 0.00 0.00 20 1009.8
20260901151600 81 101 5.0 8.0 0.00 0.00 0.00 20 1009.7
20260901150107 80 90 2.0 10.0 0.00 0.00 0.00 23 1009.7
20260901144557 79 90 2.0 9.0 0.00 0.00 0.00 22 1009.7
20260901143109 78 110 0.0 5.0 0.00 0.00 0.00 27 1009.5
20260901141554 77 65 3.0 6.0 0.00 0.00 0.00 32 1009.2
20260901140054 75 89 0.0 3.0 0.00 0.00 0.00 34 1009.1
20260901134616 74 105 0.0 2.0 0.00 0.00 0.00 32 1009.1
20260901133058 74 107 0.0 0.0 0.00 0.00 0.00 27 1009.1
20260901131549 74 104 0.0 2.0 0.00 0.00 0.00 27 1008.9
20260901130046 75 108 0.0 8.0 0.00 0.00 0.00 26 1008.8
20260901124550 75 99 5.0 8.0 0.00 0.00 0.00 27 1008.6
20260901123042 75 92 1.0 6.0 0.00 0.00 0.00 28 1008.5
20260901121544 76 93 2.0 6.0 0.00 0.00 0.00 29 1008.5
20260901120038 76 69 0.0 5.0 0.00 0.00 0.00 30 1008.5
20260901114551 76 63 3.0 6.0 0.00 0.00 0.00 30 1008.4
20260901113036 76 88 0.0 5.0 0.00 0.00 0.00 34 1008.4
20260901111535 77 84 2.0 6.0 0.00 0.00 0.00 34 1008.4
20260901110034 77 87 2.0 8.0 0.00 0.00 0.00 33 1008.4
20260901104533 77 95 1.0 6.0 0.00 0.00 0.00 31 1008.3
20260901103030 78 69 1.0 7.0 0.00 0.00 0.00 28 1008.3
20260901101527 78 95 3.0 9.0 0.00 0.00 0.00 26 1008.2
20260901100026 79 71 2.0 7.0 0.00 0.00 0.00 27 1008.1
20260901094524 79 119 4.0 9.0 0.00 0.00 0.00 29 1007.9
20260901093020 79 69 4.0 11.0 0.00 0.00 0.00 31 1008.0
20260901091518 80 90 5.0 11.0 0.00 0.00 0.00 33 1007.8
20260901090016 80 96 6.0 11.0 0.00 0.00 0.00 34 1007.7
20260901084515 81 68 5.0 11.0 0.00 0.00 0.00 36 1007.7
20260901083012 81 88 7.0 12.0 0.00 0.00 0.00 33 1007.7
20260901081507 82 108 6.0 11.0 0.00 0.00 0.00 25 1007.7
20260901080006 83 101 1.0 6.0 0.00 0.00 0.00 16 1007.6
20260901074505 84 102 3.0 7.0 0.00 0.00 0.00 15 1007.5
20260901073005 84 114 4.0 9.0 0.00 0.00 0.00 15 1007.3
20260901071501 84 120 4.0 7.0 0.00 0.00 0.00 16 1007.3
20260901070058 83 120 1.0 6.0 0.00 0.00 0.00 17 1007.1
20260901064557 83 115 0.0 4.0 0.00 0.00 0.00 26 1006.9
20260901063057 84 136 0.0 0.0 0.00 0.00 0.00 25 1006.7
20260901061555 85 161 0.0 3.0 0.00 0.00 0.00 25 1006.5
20260901060054 86 110 1.0 8.0 0.00 0.00 0.00 31 1006.5
20260901054555 86 155 2.0 10.0 0.00 0.00 0.00 32 1006.5
20260901053054 87 129 7.0 13.0 0.00 0.00 0.00 31 1006.4
20260901051558 87 145 6.0 0.0 0.00 0.00 0.00 31 1006.4
20260901050053 87 112 6.0 14.0 0.00 0.00 0.00 32 1006.4
20260901044652 88 122 8.0 13.0 0.00 0.00 0.00 32 1006.3
20260901043052 88 120 6.0 14.0 0.00 0.00 0.00 33 1006.3
20260901041551 88 127 7.0 16.0 0.00 0.00 0.00 34 1006.1
20260901040108 89 85 9.0 14.0 0.00 0.00 0.00 27 1005.9
20260901034549 90 162 2.0 5.0 0.00 0.00 0.00 17 1005.7
20260901033050 91 184 4.0 12.0 0.00 0.00 0.00 17 1005.5
20260901031547 91 232 4.0 8.0 0.00 0.00 0.00 16 1005.5
20260901030046 91 233 1.0 9.0 0.00 0.00 0.00 16 1005.2
20260901024546 91 204 2.0 8.0 0.00 0.00 0.00 16 1005.1